Location: Huesca
(42.1318°N, 0.4078°W)
Time: 06:40:59
(UTC+02:00)

AAUSAT CUBESAT 2 - Visible Passes

Search period start: 16 April 2024 00:00
Search period end: 26 April 2024 00:00
Orbit: 519 x 529 km, 97.6° (Epoch: 15 April)

Date Brightness Start Highest point End Pass type
(mag) Time Alt. Az. Time Alt. Az. Time Alt. Az.
16 Apr ? 05:38:50 10° NE 05:41:27 18° E 05:44:05 10° SE visible
17 Apr ? 05:27:19 10° ENE 05:29:04 13° E 05:30:49 10° ESE visible
19 Apr ? 06:34:59 10° NNE 06:38:50 88° ESE 06:42:38 10° SSW visible
20 Apr ? 06:22:35 10° NNE 06:26:22 61° E 06:30:08 10° S visible
21 Apr ? 06:10:13 10° NNE 06:13:51 41° E 06:17:28 10° S visible
22 Apr ? 05:57:53 10° NE 06:01:16 29° E 06:04:37 10° SSE visible
23 Apr ? 05:45:38 10° NE 05:48:36 21° E 05:51:32 10° SE visible
24 Apr ? 05:33:34 10° NE 05:35:51 15° E 05:38:07 10° SE visible
25 Apr ? 05:22:10 10° ENE 05:23:02 11° E 05:23:55 10° ESE visible
